Location: Zagreb
(45.8000°N, 16.0000°E)
Time: 17:28:30
(UTC+01:00)

Tiros 1 despin weight - Pass Details

Date: 04 February 2020
Orbit: 594 x 642 km, 48.2° (Epoch: 25 February)

Event Time Altitude Azimuth Distance (km) Brightness Sun altitude
Rises 10:01:27 0° 273° (W) 2,844 ? 21.4°
Reaches altitude 10° 10:03:45 10° 276° (W) 1,948 ? 21.6°
Maximum altitude 10:08:12 63° 359° (N) 680 ? 22.0°
Drops below altitude 10° 10:12:42 10° 81° (E) 1,977 ? 22.5°
Sets 10:15:03 0° 84° (E) 2,891 ? 22.7°
